QPF
0.01 0.02 0.02 0.02 0.02 0.02 0.03 0.03 0.02 0.02 0.03 0.04 0.04 0.05 0.06 0.05 0.04 0.04 0.04 0.04 0.05 0.06 0.07 0.09 0.11 0.12 0.13 0.14 0.15 0.16 0.15 0.13 0.14 0.15 0.12 0.10 0.09 0.09 0.09 0.07 0.07 0.06 0.05
0.01 0.01 0.02 0.02 0.02 0.03 0.03 0.03 0.03 0.03 0.03 0.04 0.06 0.05 0.05 0.04 0.04 0.03 0.03 0.03 0.04 0.05 0.05 0.05 0.07 0.09 0.09 0.10 0.11 0.11 0.11 0.11 0.11 0.12 0.11 0.10 0.09 0.08 0.09 0.09 0.07 0.05 0.04
0.01 0.01 0.02 0.02 0.02 0.03 0.03 0.04 0.05 0.04 0.04 0.04 0.04 0.06 0.05 0.04 0.04 0.03 0.03 0.03 0.03 0.05 0.05 0.05 0.05 0.05 0.06 0.06 0.07 0.07 0.08 0.08 0.09 0.09 0.10 0.10 0.10 0.09 0.08 0.07 0.06 0.04 0.02
0.01 0.01 0.02 0.02 0.02 0.03 0.04 0.05 0.05 0.04 0.04 0.03 0.03 0.04 0.05 0.04 0.03 0.03 0.02 0.03 0.04 0.05 0.05 0.04 0.04 0.04 0.04 0.05 0.05 0.05 0.05 0.06 0.08 0.09 0.10 0.11 0.11 0.09 0.06 0.05 0.05 0.05 0.03
0.02 0.02 0.02 0.03 0.03 0.03 0.03 0.04 0.03 0.03 0.02 0.02 0.02 0.02 0.03 0.04 0.03 0.03 0.03 0.02 0.03 0.05 0.05 0.04 0.03 0.04 0.04 0.04 0.04 0.04 0.04 0.06 0.07 0.08 0.09 0.10 0.10 0.08 0.06 0.04 0.03 0.03 0.03
0.03 0.03 0.04 0.04 0.04 0.05 0.04 0.03 0.03 0.03 0.02 0.02 0.02 0.02 0.02 0.02 0.03 0.04 0.03 0.02 0.02 0.03 0.04 0.03 0.03 0.02 0.03 0.03 0.03 0.03 0.03 0.04 0.06 0.05 0.05 0.06 0.06 0.05 0.04 0.03 0.03 0.03 0.03
0.03 0.03 0.03 0.03 0.04 0.04 0.04 0.03 0.02 0.02 0.03 0.03 0.03 0.04 0.04 0.03 0.03 0.03 0.03 0.03 0.02 0.02 0.03 0.03 0.02 0.02 0.01 0.01 0.01 0.02 0.02 0.02 0.02 0.03 0.04 0.04 0.04 0.03 0.02 0.02 0.03 0.03 0.03
0.04 0.04 0.03 0.03 0.03 0.04 0.04 0.04 0.03 0.03 0.04 0.04 0.04 0.04 0.05 0.03 0.03 0.02 0.03 0.03 0.03 0.02 0.02 0.02 0.02 0.02 0.01 0.01 0.01 0.02 0.01 0.01 0.01 0.01 0.02 0.02 0.02 0.02 0.02 0.02 0.02 0.03 0.02
0.02 0.04 0.03 0.02 0.03 0.03 0.04 0.04 0.04 0.05 0.08 0.06 0.04 0.04 0.03 0.03 0.03 0.02 0.02 0.03 0.03 0.02 0.02 0.02 0.01 0.01 0.01 0.01 0.01 0.02 0.02 0.01 0.00 0.00 0.00 0.01 0.01 0.00 0.01 0.01 0.02 0.02 0.03
0.03 0.03 0.03 0.03 0.04 0.04 0.05 0.05 0.04 0.05 0.09 0.05 0.03 0.02 0.03 0.02 0.02 0.02 0.02 0.03 0.03 0.03 0.02 0.01 0.01 0.00 0.00 0.00 0.02 0.02 0.02 0.02 0.01 0.01 0.01 0.01 0.01 0.01 0.01 0.02 0.03 0.03 0.03
0.02 0.03 0.04 0.04 0.04 0.04 0.06 0.05 0.04 0.05 0.05 0.03 0.02 0.02 0.01 0.01 0.01 0.01 0.01 0.02 0.03 0.03 0.02 0.01 0.00 0.00 0.00 0.00 0.00 0.01 0.01 0.01 0.02 0.03 0.02 0.02 0.03 0.02 0.02 0.02 0.02 0.03 0.04
0.03 0.03 0.03 0.03 0.03 0.03 0.04 0.03 0.03 0.06 0.05 0.04 0.03 0.02 0.01 0.01 0.01 0.00 0.01 0.01 0.02 0.03 0.02 0.01 0.00 0.00 0.00 0.00 0.00 0.00 0.00 0.01 0.02 0.02 0.03 0.03 0.03 0.03 0.02 0.02 0.02 0.02 0.03
0.03 0.03 0.02 0.02 0.03 0.04 0.04 0.03 0.02 0.04 0.05 0.05 0.03 0.02 0.01 0.01 0.00 0.00 0.00 0.00 0.01 0.01 0.01 0.00 0.00 0.00 0.00 0.00 0.00 0.00 0.01 0.01 0.02 0.01 0.02 0.02 0.02 0.02 0.01 0.01 0.01 0.01 0.01
0.03 0.03 0.02 0.02 0.03 0.03 0.02 0.02 0.03 0.03 0.03 0.05 0.04 0.03 0.02 0.01 0.00 0.00 0.00 0.00 0.00 0.00 0.01 0.00 0.00 0.00 0.00 0.00 0.00 0.01 0.01 0.01 0.01 0.01 0.01 0.01 0.01 0.01 0.01 0.01 0.01 0.02 0.01
0.03 0.02 0.02 0.02 0.02 0.02 0.02 0.02 0.01 0.02 0.02 0.03 0.03 0.02 0.01 0.01 0.00 0.00 0.00 0.00 0.00 0.00 0.01 0.01 0.00 0.01 0.01 0.01 0.01 0.01 0.01 0.00 0.01 0.01 0.01 0.01 0.01 0.01 0.01 0.01 0.01 0.01 0.01
0.01 0.01 0.01 0.01 0.01 0.01 0.01 0.00 0.00 0.01 0.01 0.01 0.01 0.00 0.00 0.00 0.00 0.00 0.00 0.00 0.00 0.00 0.00 0.00 0.01 0.01 0.01 0.01 0.01 0.01 0.00 0.01 0.01 0.01 0.01 0.01 0.01 0.01 0.01 0.00 0.00 0.00 0.01
0.01 0.01 0.01 0.01 0.01 0.01 0.01 0.01 0.00 0.01 0.01 0.00 0.00 0.00 0.00 0.00 0.00 0.00 0.00 0.00 0.00 0.00 0.00 0.01 0.01 0.01 0.00 0.00 0.00 0.00 0.00 0.00 0.00 0.00 0.01 0.01 0.01 0.00 0.00 0.00 0.00 0.00 0.00
0.01 0.00 0.01 0.01 0.00 0.00 0.00 0.00 0.00 0.00 0.00 0.00 0.00 0.00 0.00 0.00 0.00 0.00 0.00 0.00 0.00 0.00 0.00 0.00 0.00 0.00 0.00 0.00 0.00 0.00 0.00 0.00 0.00 0.00 0.01 0.01 0.00 0.00 0.00 0.00 0.00 0.00 0.00
0.00 0.00 0.00 0.00 0.00 0.00 0.00 0.00 0.00 0.00 0.00 0.00 0.00 0.00 0.00 0.00 0.00 0.00 0.00 0.01 0.01 0.01 0.00 0.00 0.01 0.01 0.00 0.00 0.00 0.00 0.00 0.00 0.00 0.00 0.01 0.01 0.00 0.00 0.00 0.00 0.00 0.00 0.00
0.00 0.00 0.00 0.00 0.00 0.00 0.00 0.00 0.00 0.00 0.00 0.00 0.00 0.00 0.00 0.00 0.00 0.00 0.00 0.00 0.00 0.00 0.00 0.00 0.00 0.00 0.01 0.01 0.00 0.00 0.00 0.00 0.00 0.00 0.01 0.01 0.00 0.00 0.00 0.00 0.00 0.00 0.00
0.00 0.00 0.00 0.00 0.00 0.00 0.00 0.00 0.00 0.00 0.00 0.00 0.00 0.00 0.00 0.00 0.00 0.00 0.00 0.00 0.00 0.00 0.00 0.00 0.00 0.00 0.00 0.01 0.01 0.00 0.00 0.00 0.00 0.00 0.00 0.00 0.00 0.00 0.00 0.00 0.00 0.00 0.00
0.00 0.00 0.00 0.00 0.00 0.00 0.00 0.00 0.00 0.00 0.00 0.00 0.00 0.00 0.00 0.00 0.00 0.00 0.00 0.00 0.00 0.00 0.00 0.00 0.00 0.00 0.01 0.01 0.01 0.01 0.00 0.00 0.00 0.00 0.00 0.00 0.00 0.00 0.00 0.00 0.00 0.00 0.00
0.00 0.00 0.00 0.00 0.00 0.00 0.00 0.00 0.00 0.00 0.00 0.00 0.00 0.00 0.00 0.00 0.00 0.00 0.00 0.00 0.00 0.00 0.00 0.00 0.00 0.00 0.00 0.00 0.00 0.00 0.00 0.00 0.00 0.00 0.00 0.00 0.00 0.00 0.00 0.00 0.00 0.00 0.00
0.00 0.00 0.00 0.00 0.00 0.00 0.00 0.00 0.00 0.00 0.00 0.00 0.00 0.00 0.00 0.00 0.00 0.00 0.00 0.00 0.00 0.00 0.00 0.00 0.00 0.00 0.00 0.00 0.00 0.00 0.00 0.00 0.00 0.00 0.00 0.00 0.00 0.00 0.00 0.00 0.00 0.00 0.00
0.00 0.00 0.00 0.00 0.00 0.00 0.00 0.00 0.00 0.00 0.00 0.00 0.00 0.00 0.00 0.00 0.00 0.00 0.00 0.00 0.00 0.00 0.00 0.00 0.00 0.00 0.00 0.00 0.00 0.00 0.00 0.00 0.00 0.00 0.00 0.00 0.00 0.00 0.00 0.00 0.00 0.00 0.00
0.00 0.00 0.00 0.00 0.00 0.00 0.00 0.00 0.00 0.00 0.00 0.00 0.00 0.00 0.00 0.00 0.00 0.00 0.00 0.00 0.00 0.00 0.00 0.00 0.00 0.00 0.00 0.00 0.00 0.00 0.00 0.00 0.00 0.00 0.00 0.00 0.00 0.00 0.00 0.00 0.00 0.00 0.00
MSLP
1019.16 1018.91 1018.67 1018.46 1018.26 1018.10 1017.98 1017.92 1017.94 1018.03 1018.19 1018.40 1018.63 1018.85 1019.02 1019.12 1019.14 1019.06 1018.92 1018.73 1018.55 1018.41 1018.36 1018.42 1018.60 1018.91 1019.33 1019.83 1020.38 1020.93 1021.46 1021.93 1022.35 1022.71 1023.02 1023.30 1023.58 1023.87 1024.19 1024.54 1024.92 1025.32 1025.72
1019.62 1019.43 1019.25 1019.08 1018.91 1018.76 1018.63 1018.56 1018.55 1018.61 1018.76 1018.97 1019.21 1019.46 1019.67 1019.82 1019.87 1019.83 1019.70 1019.51 1019.30 1019.11 1018.99 1018.96 1019.04 1019.25 1019.57 1019.97 1020.43 1020.90 1021.36 1021.78 1022.15 1022.48 1022.76 1023.03 1023.28 1023.55 1023.85 1024.17 1024.51 1024.86 1025.22
1020.13 1020.01 1019.91 1019.79 1019.66 1019.52 1019.40 1019.31 1019.28 1019.33 1019.46 1019.65 1019.89 1020.15 1020.37 1020.54 1020.62 1020.59 1020.48 1020.29 1020.06 1019.84 1019.66 1019.57 1019.58 1019.71 1019.94 1020.26 1020.63 1021.03 1021.43 1021.80 1022.14 1022.44 1022.70 1022.95 1023.19 1023.43 1023.69 1023.97 1024.25 1024.54 1024.82
1020.70 1020.67 1020.63 1020.56 1020.48 1020.37 1020.26 1020.17 1020.12 1020.15 1020.24 1020.41 1020.64 1020.87 1021.09 1021.26 1021.34 1021.32 1021.21 1021.02 1020.79 1020.55 1020.35 1020.23 1020.19 1020.26 1020.43 1020.68 1021.00 1021.34 1021.69 1022.02 1022.33 1022.61 1022.86 1023.09 1023.32 1023.54 1023.75 1023.97 1024.19 1024.39 1024.58
1021.33 1021.36 1021.38 1021.37 1021.32 1021.24 1021.14 1021.05 1020.99 1021.00 1021.07 1021.20 1021.39 1021.59 1021.79 1021.93 1022.00 1021.98 1021.87 1021.69 1021.47 1021.24 1021.04 1020.91 1020.86 1020.90 1021.03 1021.24 1021.51 1021.81 1022.11 1022.42 1022.70 1022.96 1023.20 1023.42 1023.63 1023.83 1024.00 1024.17 1024.31 1024.42 1024.51
1021.96 1022.05 1022.11 1022.14 1022.12 1022.06 1021.97 1021.88 1021.82 1021.80 1021.84 1021.94 1022.08 1022.25 1022.40 1022.51 1022.56 1022.54 1022.44 1022.28 1022.08 1021.88 1021.71 1021.60 1021.56 1021.60 1021.72 1021.91 1022.14 1022.40 1022.67 1022.94 1023.19 1023.43 1023.66 1023.86 1024.05 1024.22 1024.36 1024.47 1024.54 1024.58 1024.57
1022.53 1022.66 1022.75 1022.80 1022.80 1022.75 1022.67 1022.58 1022.51 1022.48 1022.49 1022.56 1022.67 1022.79 1022.91 1022.99 1023.03 1023.00 1022.91 1022.78 1022.63 1022.48 1022.36 1022.30 1022.29 1022.35 1022.46 1022.63 1022.83 1023.05 1023.28 1023.51 1023.72 1023.93 1024.13 1024.31 1024.47 1024.61 1024.72 1024.78 1024.80 1024.77 1024.69
1022.99 1023.12 1023.22 1023.27 1023.27 1023.23 1023.16 1023.07 1023.01 1022.97 1022.98 1023.03 1023.12 1023.21 1023.30 1023.37 1023.39 1023.38 1023.32 1023.23 1023.13 1023.05 1022.99 1022.98 1023.02 1023.10 1023.22 1023.37 1023.54 1023.71 1023.89 1024.05 1024.22 1024.37 1024.52 1024.67 1024.80 1024.91 1024.98 1025.01 1024.99 1024.91 1024.79
1023.28 1023.40 1023.49 1023.53 1023.53 1023.49 1023.42 1023.36 1023.31 1023.29 1023.31 1023.36 1023.44 1023.53 1023.62 1023.68 1023.71 1023.71 1023.68 1023.64 1023.61 1023.59 1023.60 1023.64 1023.72 1023.82 1023.94 1024.07 1024.20 1024.31 1024.42 1024.51 1024.60 1024.69 1024.78 1024.88 1024.97 1025.04 1025.09 1025.10 1025.05 1024.96 1024.80
1023.40 1023.50 1023.57 1023.59 1023.58 1023.55 1023.50 1023.47 1023.45 1023.47 1023.52 1023.60 1023.71 1023.81 1023.90 1023.97 1024.02 1024.04 1024.05 1024.06 1024.07 1024.11 1024.17 1024.25 1024.35 1024.47 1024.58 1024.67 1024.74 1024.79 1024.82 1024.83 1024.84 1024.86 1024.88 1024.92 1024.97 1025.01 1025.04 1025.03 1024.98 1024.88 1024.72
1023.39 1023.46 1023.51 1023.51 1023.50 1023.48 1023.47 1023.47 1023.51 1023.59 1023.69 1023.83 1023.97 1024.10 1024.22 1024.31 1024.37 1024.41 1024.44 1024.48 1024.52 1024.59 1024.67 1024.78 1024.88 1024.99 1025.07 1025.12 1025.14 1025.11 1025.07 1025.00 1024.93 1024.88 1024.84 1024.83 1024.84 1024.85 1024.86 1024.84 1024.79 1024.70 1024.55
1023.31 1023.35 1023.38 1023.37 1023.37 1023.37 1023.39 1023.46 1023.56 1023.71 1023.89 1024.09 1024.28 1024.46 1024.60 1024.71 1024.79 1024.84 1024.87 1024.91 1024.95 1025.01 1025.09 1025.18 1025.27 1025.34 1025.38 1025.38 1025.34 1025.26 1025.15 1025.02 1024.89 1024.78 1024.70 1024.65 1024.62 1024.62 1024.61 1024.59 1024.55 1024.46 1024.33
1023.23 1023.25 1023.26 1023.25 1023.25 1023.28 1023.35 1023.48 1023.67 1023.89 1024.15 1024.42 1024.67 1024.89 1025.07 1025.19 1025.26 1025.30 1025.31 1025.31 1025.32 1025.35 1025.38 1025.43 1025.47 1025.49 1025.49 1025.44 1025.35 1025.23 1025.08 1024.91 1024.75 1024.61 1024.51 1024.43 1024.39 1024.38 1024.37 1024.35 1024.31 1024.23 1024.11
1023.21 1023.21 1023.20 1023.19 1023.20 1023.26 1023.39 1023.58 1023.83 1024.14 1024.47 1024.81 1025.11 1025.37 1025.57 1025.69 1025.75 1025.75 1025.72 1025.66 1025.61 1025.56 1025.52 1025.50 1025.48 1025.44 1025.39 1025.31 1025.19 1025.05 1024.88 1024.72 1024.56 1024.42 1024.31 1024.24 1024.20 1024.18 1024.17 1024.15 1024.10 1024.03 1023.91
1023.27 1023.25 1023.22 1023.21 1023.23 1023.31 1023.48 1023.72 1024.03 1024.40 1024.80 1025.19 1025.54 1025.83 1026.03 1026.14 1026.17 1026.13 1026.03 1025.90 1025.76 1025.63 1025.51 1025.40 1025.31 1025.22 1025.13 1025.03 1024.90 1024.77 1024.62 1024.48 1024.35 1024.24 1024.16 1024.11 1024.07 1024.06 1024.04 1024.01 1023.96 1023.87 1023.74
1023.39 1023.35 1023.30 1023.27 1023.29 1023.39 1023.57 1023.85 1024.20 1024.61 1025.05 1025.48 1025.86 1026.16 1026.36 1026.46 1026.45 1026.36 1026.19 1025.99 1025.76 1025.54 1025.34 1025.16 1025.01 1024.88 1024.77 1024.66 1024.55 1024.45 1024.35 1024.25 1024.17 1024.10 1024.06 1024.03 1024.01 1024.00 1023.97 1023.93 1023.85 1023.74 1023.58
1023.52 1023.46 1023.38 1023.33 1023.34 1023.43 1023.61 1023.89 1024.27 1024.70 1025.15 1025.60 1025.99 1026.30 1026.49 1026.57 1026.54 1026.40 1026.18 1025.91 1025.62 1025.33 1025.07 1024.84 1024.65 1024.50 1024.38 1024.29 1024.22 1024.16 1024.11 1024.08 1024.05 1024.03 1024.02 1024.01 1024.00 1023.98 1023.93 1023.86 1023.75 1023.60 1023.41
1023.61 1023.52 1023.41 1023.33 1023.31 1023.37 1023.54 1023.81 1024.17 1024.60 1025.05 1025.50 1025.89 1026.19 1026.38 1026.45 1026.40 1026.24 1025.99 1025.69 1025.36 1025.04 1024.75 1024.49 1024.29 1024.14 1024.04 1023.99 1023.96 1023.95 1023.97 1023.98 1024.00 1024.02 1024.03 1024.03 1024.01 1023.96 1023.88 1023.77 1023.61 1023.42 1023.19
1023.63 1023.50 1023.36 1023.24 1023.19 1023.21 1023.34 1023.58 1023.91 1024.31 1024.74 1025.17 1025.55 1025.85 1026.04 1026.11 1026.06 1025.90 1025.66 1025.35 1025.03 1024.70 1024.41 1024.17 1023.99 1023.87 1023.80 1023.79 1023.82 1023.87 1023.92 1023.98 1024.03 1024.07 1024.08 1024.06 1024.01 1023.92 1023.80 1023.63 1023.43 1023.19 1022.92
1023.56 1023.40 1023.23 1023.07 1022.98 1022.96 1023.05 1023.24 1023.52 1023.88 1024.27 1024.67 1025.04 1025.33 1025.52 1025.60 1025.57 1025.43 1025.22 1024.94 1024.65 1024.36 1024.11 1023.91 1023.77 1023.69 1023.68 1023.72 1023.79 1023.88 1023.98 1024.06 1024.12 1024.15 1024.14 1024.09 1023.99 1023.85 1023.67 1023.44 1023.19 1022.91 1022.60
1023.43 1023.25 1023.05 1022.87 1022.73 1022.67 1022.71 1022.84 1023.07 1023.38 1023.73 1024.09 1024.43 1024.71 1024.90 1025.00 1024.99 1024.89 1024.72 1024.50 1024.26 1024.03 1023.83 1023.69 1023.61 1023.59 1023.64 1023.72 1023.84 1023.96 1024.08 1024.17 1024.23 1024.23 1024.19 1024.09 1023.94 1023.74 1023.50 1023.23 1022.92 1022.61 1022.28
1023.27 1023.08 1022.87 1022.66 1022.50 1022.40 1022.39 1022.47 1022.64 1022.89 1023.19 1023.51 1023.81 1024.07 1024.26 1024.37 1024.39 1024.33 1024.21 1024.04 1023.87 1023.70 1023.57 1023.50 1023.48 1023.52 1023.61 1023.75 1023.90 1024.04 1024.17 1024.26 1024.30 1024.28 1024.20 1024.05 1023.85 1023.60 1023.32 1023.00 1022.67 1022.33 1021.98
1023.13 1022.95 1022.73 1022.52 1022.33 1022.21 1022.15 1022.19 1022.31 1022.49 1022.74 1023.00 1023.26 1023.49 1023.67 1023.77 1023.81 1023.78 1023.69 1023.58 1023.46 1023.35 1023.28 1023.26 1023.30 1023.39 1023.53 1023.70 1023.88 1024.05 1024.18 1024.27 1024.30 1024.26 1024.15 1023.97 1023.74 1023.46 1023.14 1022.80 1022.45 1022.10 1021.75
1023.03 1022.86 1022.65 1022.44 1022.25 1022.10 1022.02 1022.01 1022.08 1022.21 1022.39 1022.60 1022.81 1023.00 1023.15 1023.24 1023.27 1023.25 1023.18 1023.10 1023.01 1022.94 1022.91 1022.93 1023.01 1023.14 1023.31 1023.51 1023.72 1023.90 1024.05 1024.15 1024.17 1024.13 1024.01 1023.83 1023.58 1023.29 1022.97 1022.63 1022.29 1021.94 1021.60
1022.94 1022.79 1022.61 1022.41 1022.22 1022.07 1021.96 1021.92 1021.94 1022.02 1022.15 1022.30 1022.45 1022.59 1022.69 1022.75 1022.76 1022.72 1022.65 1022.57 1022.50 1022.44 1022.43 1022.48 1022.58 1022.73 1022.92 1023.14 1023.37 1023.57 1023.74 1023.85 1023.90 1023.87 1023.76 1023.59 1023.37 1023.10 1022.80 1022.48 1022.15 1021.82 1021.50
1022.82 1022.70 1022.55 1022.37 1022.19 1022.04 1021.92 1021.85 1021.84 1021.87 1021.94 1022.04 1022.13 1022.21 1022.27 1022.28 1022.25 1022.19 1022.10 1022.00 1021.91 1021.85 1021.84 1021.88 1021.99 1022.15 1022.35 1022.58 1022.82 1023.05 1023.24 1023.38 1023.45 1023.46 1023.39 1023.26 1023.07 1022.84 1022.57 1022.29 1022.00 1021.69 1021.38
Thickness
5590 5589 5589 5589 5589 5590 5589 5589 5589 5589 5589 5591 5592 5593 5595 5597 5599 5601 5603 5604 5606 5607 5608 5609 5610 5610 5611 5611 5611 5610 5609 5606 5599 5591 5588 5585 5582 5581 5578 5576 5573 5570 5567
5581 5580 5580 5580 5579 5579 5579 5578 5578 5578 5578 5579 5580 5582 5584 5585 5587 5590 5592 5593 5595 5596 5597 5599 5599 5600 5599 5599 5599 5599 5598 5596 5592 5585 5579 5576 5573 5571 5569 5566 5565 5563 5559
5572 5571 5570 5570 5569 5568 5567 5566 5566 5567 5567 5567 5568 5570 5572 5573 5575 5578 5580 5581 5582 5584 5585 5587 5588 5589 5588 5587 5587 5588 5587 5586 5583 5579 5573 5568 5565 5563 5560 5559 5557 5553 5552
5562 5561 5560 5558 5558 5557 5557 5556 5556 5556 5556 5556 5557 5559 5560 5562 5564 5566 5568 5569 5571 5572 5573 5575 5576 5577 5576 5576 5576 5576 5576 5574 5571 5569 5565 5561 5558 5554 5553 5552 5549 5546 5545
5553 5552 5550 5548 5548 5547 5547 5546 5546 5546 5546 5547 5547 5548 5549 5550 5551 5554 5557 5558 5559 5560 5562 5562 5562 5562 5562 5563 5565 5564 5564 5563 5562 5560 5557 5554 5551 5547 5546 5545 5544 5541 5538
5544 5542 5541 5540 5539 5538 5537 5537 5537 5537 5538 5538 5538 5539 5539 5538 5537 5540 5544 5547 5549 5550 5551 5551 5551 5551 5550 5550 5550 5550 5551 5552 5551 5550 5549 5546 5542 5541 5539 5538 5537 5536 5533
5535 5534 5533 5532 5531 5531 5530 5529 5529 5529 5530 5530 5529 5529 5528 5525 5526 5529 5533 5537 5539 5539 5540 5541 5542 5540 5541 5541 5540 5539 5539 5538 5538 5540 5539 5537 5534 5533 5532 5530 5528 5528 5527
5527 5526 5526 5525 5524 5523 5523 5521 5521 5522 5522 5522 5521 5519 5518 5516 5517 5520 5523 5527 5529 5529 5529 5530 5531 5530 5530 5531 5534 5533 5532 5530 5530 5530 5528 5527 5526 5524 5523 5522 5521 5520 5519
5521 5519 5518 5518 5518 5517 5516 5515 5515 5515 5515 5515 5514 5513 5512 5509 5509 5512 5515 5519 5520 5520 5521 5520 5521 5521 5518 5521 5525 5525 5524 5521 5519 5519 5518 5517 5515 5515 5514 5516 5516 5517 5516
5515 5513 5512 5512 5511 5510 5509 5509 5509 5509 5509 5509 5508 5506 5505 5503 5501 5504 5508 5514 5514 5514 5513 5512 5509 5510 5510 5513 5517 5518 5518 5516 5516 5514 5511 5510 5510 5509 5507 5508 5511 5511 5511
5510 5508 5506 5506 5505 5505 5504 5504 5504 5505 5504 5503 5502 5500 5499 5497 5496 5497 5500 5506 5508 5509 5510 5509 5504 5502 5504 5506 5508 5510 5508 5508 5511 5511 5510 5509 5507 5506 5505 5504 5504 5506 5506
5505 5504 5502 5501 5502 5501 5500 5500 5500 5500 5500 5499 5498 5497 5495 5493 5490 5490 5492 5495 5497 5502 5503 5502 5498 5496 5498 5499 5501 5500 5501 5503 5508 5508 5507 5506 5505 5504 5502 5501 5499 5499 5498
5502 5500 5498 5498 5497 5497 5498 5498 5498 5498 5499 5498 5497 5496 5494 5492 5488 5486 5487 5489 5491 5494 5495 5491 5491 5492 5493 5495 5494 5496 5498 5503 5504 5504 5503 5502 5501 5499 5498 5497 5497 5496 5497
5501 5498 5497 5496 5496 5495 5496 5496 5496 5496 5496 5496 5495 5494 5492 5491 5490 5489 5490 5490 5489 5491 5492 5489 5489 5490 5492 5491 5493 5496 5498 5498 5498 5499 5498 5498 5497 5497 5497 5498 5498 5498 5499
5500 5499 5498 5496 5495 5494 5492 5489 5491 5489 5489 5490 5492 5492 5491 5490 5482 5480 5483 5488 5488 5489 5489 5493 5495 5495 5495 5495 5496 5495 5496 5496 5495 5495 5495 5495 5495 5496 5496 5497 5496 5497 5499
5502 5501 5500 5499 5497 5496 5495 5491 5484 5484 5483 5482 5482 5484 5484 5481 5479 5479 5480 5481 5482 5484 5488 5494 5495 5495 5496 5496 5495 5495 5495 5494 5494 5493 5494 5494 5494 5494 5496 5496 5497 5497 5498
5503 5502 5502 5501 5499 5499 5498 5497 5494 5486 5483 5482 5482 5482 5481 5481 5480 5480 5481 5482 5484 5485 5493 5495 5495 5495 5495 5496 5496 5496 5495 5494 5492 5493 5493 5493 5494 5494 5495 5496 5497 5497 5499
5506 5502 5503 5503 5502 5502 5501 5501 5500 5499 5497 5493 5486 5484 5483 5483 5483 5483 5483 5485 5493 5493 5498 5498 5497 5497 5497 5497 5497 5496 5495 5495 5494 5494 5493 5494 5494 5495 5496 5497 5497 5496 5497
5510 5509 5507 5507 5507 5506 5505 5505 5505 5503 5503 5502 5501 5493 5488 5488 5487 5488 5488 5496 5500 5501 5501 5500 5500 5499 5499 5498 5497 5496 5496 5495 5495 5494 5495 5494 5495 5496 5497 5498 5498 5495 5495
5512 5507 5508 5511 5512 5511 5511 5510 5510 5509 5509 5509 5508 5506 5502 5501 5503 5501 5501 5503 5504 5504 5503 5503 5502 5501 5500 5500 5500 5499 5499 5498 5497 5497 5497 5497 5497 5497 5498 5498 5499 5500 5500
5520 5515 5509 5515 5517 5517 5516 5516 5515 5515 5515 5515 5514 5510 5503 5510 5511 5509 5510 5509 5508 5508 5507 5506 5506 5505 5504 5503 5504 5503 5501 5501 5500 5500 5500 5499 5499 5499 5499 5500 5500 5501 5502
5527 5526 5524 5525 5523 5522 5522 5522 5522 5522 5522 5522 5521 5518 5509 5514 5518 5517 5516 5515 5514 5512 5511 5510 5511 5510 5508 5508 5506 5505 5504 5504 5503 5502 5500 5501 5500 5500 5501 5502 5502 5502 5502
5532 5532 5531 5530 5529 5523 5526 5529 5530 5530 5530 5530 5530 5529 5526 5525 5525 5523 5522 5521 5519 5517 5516 5514 5513 5514 5513 5510 5508 5507 5507 5506 5504 5502 5501 5501 5502 5502 5503 5502 5502 5502 5503
5540 5539 5538 5537 5536 5536 5536 5536 5536 5536 5536 5536 5535 5535 5534 5532 5531 5529 5528 5527 5525 5523 5521 5520 5518 5517 5514 5513 5511 5511 5510 5506 5504 5503 5501 5502 5502 5503 5504 5503 5503 5503 5503
5548 5546 5546 5545 5544 5543 5543 5543 5543 5543 5543 5542 5542 5541 5541 5539 5538 5536 5535 5533 5531 5529 5527 5525 5524 5522 5520 5517 5516 5514 5510 5506 5504 5502 5501 5502 5503 5502 5503 5503 5503 5502 5502
5554 5553 5553 5552 5551 5549 5549 5549 5549 5548 5549 5549 5548 5548 5546 5546 5545 5543 5542 5539 5538 5536 5534 5532 5530 5527 5524 5522 5520 5516 5512 5509 5506 5503 5501 5502 5503 5504 5503 5503 5503 5503 5503